| time (UTC) | temp F | wind direction | speed knots | gust knots | rain 1hr in | rain 24hr in | rain mn in | humidity % | barometer mb |
| 20260505174002 | 78 | 45 | 3.5 | 6.1 | 0.00 | 0.00 | 0.00 | 80 | 1011.1 |
| 20260505173454 | 79 | 45 | 1.7 | 6.1 | 0.00 | 0.00 | 0.00 | 78 | 1011.2 |
| 20260505172944 | 80 | 113 | 2.6 | 6.1 | 0.00 | 0.00 | 0.00 | 77 | 1011.1 |
| 20260505172432 | 79 | 68 | 3.5 | 6.1 | 0.00 | 0.00 | 0.00 | 78 | 1011.0 |
| 20260505171413 | 78 | 113 | 0.9 | 6.1 | 0.00 | 0.00 | 0.00 | 80 | 1011.1 |
| 20260505170902 | 78 | 90 | 2.6 | 5.2 | 0.00 | 0.00 | 0.00 | 81 | 1011.2 |
| 20260505170352 | 78 | 45 | 1.7 | 5.2 | 0.00 | 0.00 | 0.00 | 79 | 1011.4 |
| 20260505165332 | 78 | 0 | 2.6 | 5.2 | 0.00 | 0.00 | 0.00 | 80 | 1011.3 |
| 20260505164822 | 79 | 68 | 1.7 | 3.5 | 0.00 | 0.00 | 0.00 | 80 | 1011.3 |
| 20260505164312 | 78 | 45 | 0.9 | 3.5 | 0.00 | 0.00 | 0.00 | 80 | 1011.3 |
| 20260505162740 | 76 | 45 | 1.7 | 5.2 | 0.00 | 0.00 | 0.00 | 84 | 1012.0 |
| 20260505162233 | 75 | 45 | 1.7 | 5.2 | 0.00 | 0.00 | 0.00 | 84 | 1012.1 |
| 20260505161720 | 75 | 0 | 1.7 | 5.2 | 0.00 | 0.00 | 0.00 | 85 | 1012.3 |
| 20260505161211 | 75 | 23 | 2.6 | 3.5 | 0.00 | 0.00 | 0.00 | 86 | 1012.2 |
| 20260505160150 | 74 | 23 | 1.7 | 3.5 | 0.00 | 0.00 | 0.00 | 87 | 1012.5 |
| 20260505153052 | 73 | 23 | 1.7 | 6.1 | 0.00 | 0.00 | 0.00 | 89 | 1012.4 |
| 20260505152545 | 73 | 23 | 1.7 | 6.1 | 0.00 | 0.00 | 0.00 | 89 | 1012.3 |
| 20260505152034 | 72 | 23 | 1.7 | 9.6 | 0.00 | 0.00 | 0.00 | 90 | 1012.6 |
| 20260505151527 | 72 | 45 | 1.7 | 9.6 | 0.00 | 0.00 | 0.00 | 91 | 1012.3 |
| 20260505151010 | 71 | 0 | 2.6 | 9.6 | 0.00 | 0.00 | 0.00 | 91 | 1012.4 |
| 20260505150500 | 72 | 248 | 1.7 | 7.8 | 0.00 | 0.00 | 0.00 | 91 | 1012.5 |
| 20260505140258 | 67 | 23 | 0.9 | 3.5 | 0.00 | 0.00 | 0.00 | 97 | 1013.7 |
| 20260505125035 | 66 | 45 | 2.6 | 5.2 | 0.00 | 0.00 | 0.00 | 98 | 1013.2 |
| 20260505124527 | 66 | 23 | 3.5 | 5.2 | 0.00 | 0.00 | 0.00 | 98 | 1013.1 |
| 20260505124018 | 66 | 45 | 1.7 | 5.2 | 0.00 | 0.00 | 0.00 | 98 | 1012.9 |
| 20260505123505 | 66 | 23 | 3.5 | 5.2 | 0.00 | 0.00 | 0.00 | 98 | 1012.9 |
| 20260505122957 | 66 | 0 | 2.6 | 6.1 | 0.00 | 0.00 | 0.00 | 98 | 1012.9 |
| 20260505122445 | 66 | 45 | 1.7 | 6.1 | 0.00 | 0.00 | 0.00 | 98 | 1012.8 |
| 20260505121936 | 65 | 45 | 1.7 | 6.1 | 0.00 | 0.00 | 0.00 | 98 | 1013.0 |
| 20260505121425 | 65 | 45 | 0.9 | 6.1 | 0.00 | 0.00 | 0.00 | 98 | 1012.7 |
| 20260505120915 | 65 | 23 | 3.5 | 6.1 | 0.00 | 0.00 | 0.00 | 98 | 1012.8 |
| 20260505120423 | 65 | 45 | 3.5 | 6.1 | 0.00 | 0.00 | 0.00 | 98 | 1012.7 |
| 20260505115855 | 65 | 45 | 1.7 | 6.1 | 0.00 | 0.00 | 0.00 | 98 | 1012.8 |
| 20260505115402 | 65 | 45 | 2.6 | 6.1 | 0.00 | 0.00 | 0.00 | 98 | 1012.7 |
| 20260505114835 | 65 | 45 | 1.7 | 5.2 | 0.00 | 0.00 | 0.00 | 98 | 1012.6 |
| 20260505114326 | 65 | 90 | 1.7 | 3.5 | 0.00 | 0.00 | 0.00 | 98 | 1012.4 |
| 20260505113814 | 65 | 45 | 1.7 | 3.5 | 0.00 | 0.00 | 0.00 | 98 | 1012.7 |
| 20260505113304 | 65 | 45 | 1.7 | 3.5 | 0.00 | 0.00 | 0.00 | 98 | 1012.5 |
| 20260505112754 | 65 | 45 | 1.7 | 3.5 | 0.00 | 0.00 | 0.00 | 98 | 1012.4 |
| 20260505112244 | 65 | 23 | 0.9 | 5.2 | 0.00 | 0.00 | 0.00 | 98 | 1012.6 |
| 20260505111736 | 65 | 45 | 2.6 | 5.2 | 0.00 | 0.00 | 0.00 | 98 | 1012.4 |
| 20260505111224 | 65 | 68 | 1.7 | 3.5 | 0.00 | 0.00 | 0.00 | 98 | 1012.4 |
| 20260505110728 | 65 | 68 | 1.7 | 3.5 | 0.00 | 0.00 | 0.00 | 98 | 1012.3 |
| 20260505110218 | 65 | 23 | 2.6 | 5.2 | 0.00 | 0.00 | 0.00 | 98 | 1012.2 |
| 20260505102043 | 64 | 45 | 2.6 | 6.1 | 0.00 | 0.00 | 0.00 | 98 | 1011.8 |
| 20260505101022 | 64 | 45 | 1.7 | 3.5 | 0.00 | 0.00 | 0.00 | 98 | 1011.6 |
| 20260505100514 | 64 | 23 | 1.7 | 3.5 | 0.00 | 0.00 | 0.00 | 98 | 1011.8 |
| 20260505100110 | 64 | 45 | 1.7 | 3.5 | 0.00 | 0.00 | 0.00 | 98 | 1011.4 |
| 20260505094942 | 64 | 68 | 1.7 | 5.2 | 0.00 | 0.00 | 0.00 | 98 | 1011.6 |
| 20260505094432 | 64 | 90 | 1.7 | 5.2 | 0.00 | 0.00 | 0.00 | 98 | 1011.5 |
| 20260505093923 | 64 | 45 | 1.7 | 3.5 | 0.00 | 0.00 | 0.00 | 98 | 1011.5 |
| 20260505093413 | 64 | 45 | 1.7 | 3.5 | 0.00 | 0.00 | 0.00 | 98 | 1011.4 |
| 20260505092901 | 64 | 68 | 1.7 | 3.5 | 0.00 | 0.00 | 0.00 | 98 | 1011.3 |
| 20260505092353 | 64 | 45 | 1.7 | 3.5 | 0.00 | 0.00 | 0.00 | 98 | 1011.2 |
| 20260505090822 | 65 | 45 | 1.7 | 3.5 | 0.00 | 0.00 | 0.00 | 97 | 1011.3 |
| 20260505090311 | 65 | 45 | 0.9 | 3.5 | 0.00 | 0.00 | 0.00 | 97 | 1011.3 |
| 20260505085801 | 64 | 68 | 0.9 | 3.5 | 0.00 | 0.00 | 0.00 | 97 | 1011.3 |
| 20260505085251 | 65 | 68 | 0.9 | 3.5 | 0.00 | 0.00 | 0.00 | 97 | 1011.5 |
| 20260505084742 | 65 | 45 | 1.7 | 3.5 | 0.00 | 0.00 | 0.00 | 97 | 1011.5 |
| 20260505084231 | 64 | 45 | 1.7 | 3.5 | 0.00 | 0.00 | 0.00 | 97 | 1011.4 |
| 20260505083720 | 64 | 68 | 1.7 | 3.5 | 0.00 | 0.00 | 0.00 | 97 | 1011.0 |
| 20260505083210 | 65 | 45 | 2.6 | 3.5 | 0.00 | 0.00 | 0.00 | 97 | 1010.9 |
| 20260505082701 | 65 | 90 | 2.6 | 3.5 | 0.00 | 0.00 | 0.00 | 97 | 1010.8 |
| 20260505082152 | 65 | 90 | 1.7 | 5.2 | 0.00 | 0.00 | 0.00 | 97 | 1011.1 |
| 20260505081641 | 65 | 45 | 2.6 | 5.2 | 0.00 | 0.00 | 0.00 | 97 | 1011.2 |
| 20260505081130 | 65 | 45 | 1.7 | 3.5 | 0.00 | 0.00 | 0.00 | 97 | 1011.4 |
| 20260505080622 | 65 | 90 | 2.6 | 5.2 | 0.00 | 0.00 | 0.00 | 96 | 1011.1 |
| 20260505080110 | 65 | 23 | 2.6 | 5.2 | 0.00 | 0.00 | 0.00 | 96 | 1011.3 |
| 20260505075050 | 65 | 45 | 1.7 | 3.5 | 0.00 | 0.00 | 0.00 | 96 | 1011.3 |
| 20260505074539 | 65 | 45 | 1.7 | 3.5 | 0.00 | 0.00 | 0.00 | 96 | 1011.1 |
| 20260505074030 | 65 | 68 | 1.7 | 3.5 | 0.00 | 0.00 | 0.00 | 96 | 1011.2 |
| 20260505073519 | 65 | 45 | 1.7 | 3.5 | 0.00 | 0.00 | 0.00 | 96 | 1011.3 |
| 20260505073010 | 65 | 45 | 1.7 | 3.5 | 0.00 | 0.00 | 0.00 | 96 | 1011.5 |
| 20260505072458 | 65 | 0 | 1.7 | 5.2 | 0.00 | 0.00 | 0.00 | 96 | 1011.2 |
| 20260505071950 | 65 | 45 | 1.7 | 5.2 | 0.00 | 0.00 | 0.00 | 96 | 1011.3 |
| 20260505071438 | 65 | 45 | 1.7 | 3.5 | 0.00 | 0.00 | 0.00 | 95 | 1011.5 |
| 20260505070419 | 65 | 23 | 1.7 | 5.2 | 0.00 | 0.00 | 0.00 | 95 | 1011.7 |
| 20260505065400 | 65 | 0 | 2.6 | 3.5 | 0.00 | 0.00 | 0.00 | 95 | 1012.0 |
| 20260505064847 | 65 | 23 | 1.7 | 0.0 | 0.00 | 0.00 | 0.00 | 95 | 1011.7 |
| 20260505064649 | 65 | 0 | 1.7 | 0.0 | 0.00 | 0.00 | 0.00 | 95 | 1011.6 |
| 20260505064028 | 65 | 23 | 2.6 | 6.1 | 0.00 | 0.00 | 0.00 | 95 | 1011.7 |
| 20260505063519 | 65 | 23 | 1.7 | 7.8 | 0.00 | 0.00 | 0.00 | 95 | 1011.5 |
| 20260505063009 | 65 | 23 | 1.7 | 7.8 | 0.00 | 0.00 | 0.00 | 95 | 1011.7 |
| 20260505062458 | 65 | 293 | 2.6 | 7.8 | 0.00 | 0.00 | 0.00 | 95 | 1011.9 |
| 20260505061949 | 65 | 0 | 3.5 | 7.8 | 0.00 | 0.00 | 0.00 | 95 | 1011.8 |
| 20260505061437 | 65 | 23 | 3.5 | 6.1 | 0.00 | 0.00 | 0.00 | 95 | 1011.6 |
| 20260505060928 | 65 | 0 | 3.5 | 7.8 | 0.00 | 0.00 | 0.00 | 95 | 1011.6 |
| 20260505060418 | 65 | 23 | 2.6 | 7.8 | 0.00 | 0.00 | 0.00 | 95 | 1011.6 |
| 20260505055357 | 65 | 293 | 3.5 | 7.8 | 0.00 | 0.00 | 0.00 | 95 | 1011.5 |
| 20260505054847 | 65 | 23 | 1.7 | 7.8 | 0.00 | 0.00 | 0.00 | 95 | 1011.3 |
| 20260505054338 | 65 | 45 | 3.5 | 7.8 | 0.00 | 0.00 | 0.00 | 94 | 1011.1 |
| 20260505053318 | 65 | 23 | 1.7 | 7.8 | 0.00 | 0.00 | 0.00 | 94 | 1011.3 |
| 20260505052807 | 65 | 338 | 2.6 | 7.8 | 0.00 | 0.00 | 0.00 | 94 | 1011.4 |
| 20260505052257 | 65 | 0 | 4.3 | 7.8 | 0.00 | 0.00 | 0.00 | 94 | 1011.5 |
| 20260505051746 | 65 | 23 | 3.5 | 7.0 | 0.00 | 0.00 | 0.00 | 94 | 1011.5 |
| 20260505051236 | 65 | 23 | 2.6 | 7.0 | 0.00 | 0.00 | 0.00 | 94 | 1011.6 |
| 20260505050727 | 65 | 0 | 3.5 | 9.6 | 0.00 | 0.00 | 0.00 | 94 | 1011.6 |
| 20260505050219 | 65 | 0 | 2.6 | 9.6 | 0.00 | 0.00 | 0.00 | 94 | 1011.6 |
| 20260505041543 | 66 | 338 | 4.3 | 9.6 | 0.00 | 0.00 | 0.00 | 93 | 1011.6 |
| 20260505041035 | 66 | 315 | 3.5 | 9.6 | 0.00 | 0.00 | 0.00 | 92 | 1011.9 |
| 20260505040525 | 66 | 338 | 3.5 | 9.6 | 0.00 | 0.00 | 0.00 | 93 | 1011.7 |
| 20260505040026 | 66 | 23 | 3.5 | 9.6 | 0.00 | 0.00 | 0.00 | 92 | 1011.7 |
| 20260505035505 | 65 | 23 | 6.1 | 9.6 | 0.00 | 0.00 | 0.00 | 92 | 1011.7 |
| 20260505034955 | 65 | 23 | 4.3 | 7.8 | 0.00 | 0.00 | 0.00 | 92 | 1011.7 |
| 20260505034446 | 65 | 0 | 3.5 | 7.8 | 0.00 | 0.00 | 0.00 | 92 | 1011.6 |
| 20260505033424 | 65 | 0 | 3.5 | 7.8 | 0.00 | 0.00 | 0.00 | 92 | 1011.8 |
| 20260505032916 | 65 | 0 | 5.2 | 9.6 | 0.00 | 0.00 | 0.00 | 92 | 1011.8 |
| 20260505032404 | 65 | 315 | 3.5 | 9.6 | 0.00 | 0.00 | 0.00 | 92 | 1011.8 |
| 20260505031856 | 65 | 338 | 4.3 | 9.6 | 0.00 | 0.00 | 0.00 | 92 | 1011.7 |
| 20260505030835 | 65 | 23 | 3.5 | 7.0 | 0.00 | 0.00 | 0.00 | 91 | 1011.6 |
| 20260505025813 | 65 | 23 | 1.7 | 7.0 | 0.00 | 0.00 | 0.00 | 91 | 1011.5 |
| 20260505025305 | 65 | 23 | 1.7 | 7.0 | 0.00 | 0.00 | 0.00 | 91 | 1011.5 |
| 20260505024753 | 65 | 45 | 1.7 | 6.1 | 0.00 | 0.00 | 0.00 | 90 | 1011.3 |
| 20260505024245 | 64 | 68 | 2.6 | 7.0 | 0.00 | 0.00 | 0.00 | 90 | 1011.4 |
| 20260505023223 | 64 | 45 | 2.6 | 5.2 | 0.00 | 0.00 | 0.00 | 89 | 1011.5 |
| 20260505022203 | 64 | 338 | 1.7 | 3.5 | 0.00 | 0.00 | 0.00 | 88 | 1011.5 |
| 20260505021654 | 63 | 0 | 1.7 | 3.5 | 0.00 | 0.00 | 0.00 | 88 | 1011.3 |
| 20260505021143 | 63 | 45 | 1.7 | 3.5 | 0.00 | 0.00 | 0.00 | 88 | 1011.4 |
| 20260505020633 | 63 | 23 | 1.7 | 3.5 | 0.00 | 0.00 | 0.00 | 87 | 1011.3 |
| 20260505020122 | 63 | 23 | 1.7 | 3.5 | 0.00 | 0.00 | 0.00 | 87 | 1011.3 |
| 20260505015612 | 63 | 45 | 1.7 | 3.5 | 0.00 | 0.00 | 0.00 | 86 | 1011.3 |
| 20260505014554 | 63 | 23 | 1.7 | 3.5 | 0.00 | 0.00 | 0.00 | 85 | 1011.2 |
| 20260505014044 | 63 | 23 | 1.7 | 3.5 | 0.00 | 0.00 | 0.00 | 85 | 1011.0 |
| 20260505013532 | 63 | 68 | 2.6 | 3.5 | 0.00 | 0.00 | 0.00 | 84 | 1011.0 |
| 20260505013021 | 63 | 45 | 1.7 | 3.5 | 0.00 | 0.00 | 0.00 | 84 | 1010.9 |
| 20260505012513 | 62 | 45 | 1.7 | 3.5 | 0.00 | 0.00 | 0.00 | 84 | 1011.0 |
| 20260505012004 | 62 | 23 | 1.7 | 3.5 | 0.00 | 0.00 | 0.00 | 84 | 1010.9 |
| 20260505010941 | 62 | 45 | 1.7 | 3.5 | 0.00 | 0.00 | 0.00 | 84 | 1010.7 |
| 20260505010432 | 62 | 45 | 1.7 | 5.2 | 0.00 | 0.00 | 0.00 | 83 | 1011.0 |
| 20260505005922 | 62 | 23 | 1.7 | 5.2 | 0.00 | 0.00 | 0.00 | 82 | 1010.8 |
| 20260505005411 | 62 | 23 | 3.5 | 5.2 | 0.00 | 0.00 | 0.00 | 82 | 1010.8 |
| 20260505004902 | 62 | 45 | 1.7 | 5.2 | 0.00 | 0.00 | 0.00 | 82 | 1010.8 |
| 20260505004351 | 62 | 23 | 1.7 | 5.2 | 0.00 | 0.00 | 0.00 | 83 | 1010.7 |
| 20260505003843 | 62 | 23 | 1.7 | 5.2 | 0.00 | 0.00 | 0.00 | 82 | 1010.8 |
| 20260505003331 | 62 | 45 | 2.6 | 5.2 | 0.00 | 0.00 | 0.00 | 82 | 1010.8 |
| 20260505002820 | 63 | 23 | 1.7 | 5.2 | 0.00 | 0.00 | 0.00 | 82 | 1010.6 |
| 20260505002311 | 63 | 23 | 1.7 | 5.2 | 0.00 | 0.00 | 0.00 | 81 | 1010.8 |
| 20260505001759 | 63 | 23 | 1.7 | 3.5 | 0.00 | 0.00 | 0.00 | 81 | 1010.7 |
| 20260505001250 | 63 | 23 | 1.7 | 3.5 | 0.00 | 0.00 | 0.00 | 81 | 1010.5 |
| 20260505000741 | 63 | 45 | 1.7 | 3.5 | 0.00 | 0.00 | 0.00 | 81 | 1010.4 |
| 20260505000233 | 63 | 45 | 1.7 | 3.5 | 0.00 | 0.00 | 0.00 | 81 | 1010.7 |
| 20260504235720 | 63 | 23 | 2.6 | 3.5 | 0.00 | 0.00 | 0.00 | 82 | 1010.6 |
| 20260504235209 | 63 | 23 | 1.7 | 3.5 | 0.00 | 0.00 | 0.00 | 82 | 1010.4 |
| 20260504233129 | 64 | 68 | 1.7 | 3.5 | 0.00 | 0.00 | 0.00 | 80 | 1010.4 |
| 20260504232619 | 64 | 45 | 1.7 | 3.5 | 0.00 | 0.00 | 0.00 | 80 | 1010.4 |
| 20260504231559 | 65 | 68 | 1.7 | 3.5 | 0.00 | 0.00 | 0.00 | 77 | 1010.3 |
| 20260504231049 | 65 | 45 | 1.7 | 5.2 | 0.00 | 0.00 | 0.00 | 77 | 1010.2 |
| 20260504230539 | 66 | 45 | 1.7 | 5.2 | 0.00 | 0.00 | 0.00 | 74 | 1010.4 |
| 20260504230029 | 67 | 45 | 1.7 | 3.5 | 0.00 | 0.00 | 0.00 | 73 | 1010.0 |
| 20260504225519 | 67 | 23 | 1.7 | 3.5 | 0.00 | 0.00 | 0.00 | 72 | 1009.8 |
| 20260504225008 | 67 | 0 | 0.9 | 3.5 | 0.00 | 0.00 | 0.00 | 72 | 1009.9 |
| 20260504223437 | 67 | 45 | 1.7 | 3.5 | 0.00 | 0.00 | 0.00 | 71 | 1009.9 |
| 20260504221357 | 68 | 23 | 2.6 | 5.2 | 0.00 | 0.00 | 0.00 | 69 | 1009.5 |
| 20260504220846 | 68 | 23 | 1.7 | 5.2 | 0.00 | 0.00 | 0.00 | 68 | 1009.6 |
| 20260504220337 | 68 | 0 | 1.7 | 6.1 | 0.00 | 0.00 | 0.00 | 68 | 1009.4 |
| 20260504215826 | 69 | 23 | 1.7 | 6.1 | 0.00 | 0.00 | 0.00 | 67 | 1009.3 |
| 20260504215317 | 69 | 338 | 1.7 | 5.2 | 0.00 | 0.00 | 0.00 | 66 | 1009.4 |
| 20260504214806 | 69 | 45 | 2.6 | 5.2 | 0.00 | 0.00 | 0.00 | 66 | 1009.3 |
| 20260504214256 | 70 | 45 | 1.7 | 5.2 | 0.00 | 0.00 | 0.00 | 65 | 1009.4 |
| 20260504213753 | 70 | 23 | 2.6 | 5.2 | 0.00 | 0.00 | 0.00 | 64 | 1009.3 |
| 20260504213236 | 70 | 23 | 1.7 | 5.2 | 0.00 | 0.00 | 0.00 | 64 | 1009.2 |
| 20260504212726 | 71 | 68 | 1.7 | 5.2 | 0.00 | 0.00 | 0.00 | 63 | 1009.2 |
| 20260504212217 | 71 | 23 | 0.9 | 5.2 | 0.00 | 0.00 | 0.00 | 62 | 1009.2 |
| 20260504211706 | 72 | 23 | 1.7 | 5.2 | 0.00 | 0.00 | 0.00 | 62 | 1009.2 |
| 20260504210135 | 73 | 23 | 1.7 | 7.8 | 0.00 | 0.00 | 0.00 | 59 | 1009.1 |
| 20260504205627 | 74 | 0 | 2.6 | 7.8 | 0.00 | 0.00 | 0.00 | 58 | 1009.1 |
| 20260504205116 | 75 | 338 | 3.5 | 7.8 | 0.00 | 0.00 | 0.00 | 57 | 1009.2 |
| 20260504204605 | 75 | 45 | 3.5 | 7.0 | 0.00 | 0.00 | 0.00 | 55 | 1009.2 |
| 20260504204056 | 76 | 68 | 3.5 | 7.8 | 0.00 | 0.00 | 0.00 | 54 | 1009.1 |
| 20260504203559 | 76 | 338 | 2.6 | 7.8 | 0.00 | 0.00 | 0.00 | 54 | 1009.1 |
| 20260504203035 | 76 | 23 | 3.5 | 11.3 | 0.00 | 0.00 | 0.00 | 53 | 1009.1 |
| 20260504202525 | 76 | 338 | 3.5 | 11.3 | 0.00 | 0.00 | 0.00 | 52 | 1009.1 |
| 20260504201506 | 77 | 338 | 3.5 | 13.0 | 0.00 | 0.00 | 0.00 | 52 | 1008.9 |
| 20260504200954 | 77 | 315 | 5.2 | 13.0 | 0.00 | 0.00 | 0.00 | 52 | 1009.0 |
| 20260504200445 | 77 | 338 | 5.2 | 11.3 | 0.00 | 0.00 | 0.00 | 52 | 1008.9 |
| 20260504195427 | 77 | 45 | 7.0 | 11.3 | 0.00 | 0.00 | 0.00 | 51 | 1009.2 |
| 20260504194914 | 77 | 0 | 6.1 | 12.2 | 0.00 | 0.00 | 0.00 | 51 | 1009.0 |
| 20260504193854 | 78 | 338 | 6.1 | 11.3 | 0.00 | 0.00 | 0.00 | 50 | 1009.3 |
| 20260504193345 | 77 | 23 | 2.6 | 9.6 | 0.00 | 0.00 | 0.00 | 51 | 1009.3 |
| 20260504192834 | 77 | 0 | 3.5 | 13.9 | 0.00 | 0.00 | 0.00 | 51 | 1009.5 |
| 20260504192323 | 77 | 23 | 4.3 | 13.9 | 0.00 | 0.00 | 0.00 | 50 | 1009.6 |
| 20260504191814 | 77 | 23 | 4.3 | 11.3 | 0.00 | 0.00 | 0.00 | 50 | 1009.4 |
| 20260504190753 | 78 | 0 | 9.6 | 12.2 | 0.00 | 0.00 | 0.00 | 49 | 1009.6 |
| 20260504190245 | 77 | 45 | 4.3 | 13.0 | 0.00 | 0.00 | 0.00 | 49 | 1009.8 |
| 20260504185733 | 77 | 315 | 5.2 | 13.0 | 0.00 | 0.00 | 0.00 | 49 | 1009.7 |
| 20260504185222 | 77 | 113 | 6.1 | 13.0 | 0.00 | 0.00 | 0.00 | 49 | 1009.8 |
| 20260504184714 | 77 | 270 | 9.6 | 12.2 | 0.00 | 0.00 | 0.00 | 49 | 1009.9 |
| 20260504184202 | 77 | 23 | 3.5 | 12.2 | 0.00 | 0.00 | 0.00 | 49 | 1010.0 |
| 20260504183653 | 77 | 338 | 7.8 | 12.2 | 0.00 | 0.00 | 0.00 | 49 | 1010.0 |
| 20260504183142 | 76 | 90 | 4.3 | 11.3 | 0.00 | 0.00 | 0.00 | 50 | 1010.1 |
| 20260504182634 | 76 | 0 | 6.1 | 11.3 | 0.00 | 0.00 | 0.00 | 50 | 1010.3 |
| 20260504182122 | 76 | 68 | 6.1 | 13.9 | 0.00 | 0.00 | 0.00 | 50 | 1010.1 |
| 20260504181614 | 76 | 338 | 5.2 | 14.8 | 0.00 | 0.00 | 0.00 | 50 | 1010.4 |
| 20260504181103 | 76 | 68 | 4.3 | 14.8 | 0.00 | 0.00 | 0.00 | 50 | 1010.6 |
| 20260504180556 | 76 | 0 | 7.0 | 13.0 | 0.00 | 0.00 | 0.00 | 49 | 1010.6 |
| 20260504175533 | 76 | 45 | 4.3 | 12.2 | 0.00 | 0.00 | 0.00 | 50 | 1010.6 |
| 20260504174512 | 75 | 0 | 7.0 | 9.6 | 0.00 | 0.00 | 0.00 | 50 | 1010.5 |